Météo par heure à Alitub

Ce jour, 13 Mai, Jeudi

Heure Température Précipitation Vent Pression Humidité
00:00 +11°C° 0 mm 3 m/s 760 mmHg 87%
01:00 +11°C° 0 mm 3 m/s 760 mmHg 87%
02:00 +10°C° 0 mm 3 m/s 760 mmHg 88%
03:00 +10°C° 0 mm 3 m/s 760 mmHg 88%
04:00 +10°C° 0 mm 2 m/s 760 mmHg 88%
05:00 +12°C° 0 mm 2 m/s 760 mmHg 87%
06:00 +12°C° 0 mm 2 m/s 760 mmHg 86%
07:00 +13°C° 0 mm 3 m/s 760 mmHg 79%
08:00 +16°C° 0 mm 3 m/s 760 mmHg 72%
09:00 +19°C° 0 mm 3 m/s 760 mmHg 65%
10:00 +20°C° 0 mm 3 m/s 760 mmHg 62%
11:00 +21°C° 0 mm 3 m/s 760 mmHg 59%
12:00 +24°C° 0 mm 3 m/s 760 mmHg 56%
13:00 +24°C° 0 mm 3 m/s 760 mmHg 55%
14:00 +25°C° 0 mm 3 m/s 760 mmHg 54%
15:00 +25°C° 0 mm 3 m/s 760 mmHg 54%
16:00 +25°C° 0 mm 3 m/s 759 mmHg 59%
17:00 +24°C° 0 mm 3 m/s 759 mmHg 65%
18:00 +24°C° 0 mm 2 m/s 759 mmHg 71%
19:00 +21°C° 0 mm 2 m/s 759 mmHg 75%
20:00 +20°C° 0 mm 3 m/s 760 mmHg 80%
21:00 +19°C° 0 mm 3 m/s 760 mmHg 84%
22:00 +18°C° 0 mm 3 m/s 759 mmHg 83%
23:00 +17°C° 0 mm 3 m/s 759 mmHg 83%

Demain, 14 Mai, Vendredi

Heure Température Précipitation Vent Pression Humidité
00:00 +17°C° 0 mm 3 m/s 759 mmHg 82%
01:00 +16°C° 0 mm 3 m/s 759 mmHg 83%
02:00 +16°C° 0 mm 3 m/s 759 mmHg 83%
03:00 +14°C° 0 mm 3 m/s 759 mmHg 84%
04:00 +14°C° 0 mm 3 m/s 759 mmHg 83%
05:00 +16°C° 0 mm 3 m/s 759 mmHg 82%
06:00 +16°C° 0 mm 3 m/s 759 mmHg 81%
07:00 +18°C° 0 mm 4 m/s 759 mmHg 75%
08:00 +20°C° 0 mm 5 m/s 759 mmHg 70%
09:00 +22°C° 0 mm 5 m/s 759 mmHg 64%
10:00 +25°C° 0 mm 5 m/s 758 mmHg 61%
11:00 +26°C° 0 mm 5 m/s 758 mmHg 58%
12:00 +28°C° 0 mm 5 m/s 758 mmHg 55%
13:00 +28°C° 0 mm 5 m/s 758 mmHg 54%
14:00 +29°C° 0 mm 4 m/s 758 mmHg 53%
15:00 +29°C° 0 mm 4 m/s 758 mmHg 52%
16:00 +29°C° 0 mm 4 m/s 758 mmHg 58%
17:00 +28°C° 0 mm 3 m/s 758 mmHg 63%
18:00 +27°C° 0 mm 3 m/s 757 mmHg 69%
19:00 +25°C° 0 mm 3 m/s 757 mmHg 74%
20:00 +24°C° 0 mm 2 m/s 757 mmHg 80%
21:00 +21°C° 0 mm 2 m/s 757 mmHg 85%
22:00 +20°C° 0 mm 2 m/s 757 mmHg 85%
23:00 +20°C° 0 mm 2 m/s 757 mmHg 86%

Après-demain, 15 Mai, Samedi

Heure Température Précipitation Vent Pression Humidité
00:00 +20°C° 0 mm 2 m/s 757 mmHg 87%
01:00 +19°C° 0 mm 2 m/s 757 mmHg 88%
02:00 +19°C° 0 mm 2 m/s 757 mmHg 88%
03:00 +18°C° 0 mm 2 m/s 757 mmHg 89%
04:00 +19°C° 0 mm 2 m/s 758 mmHg 89%
05:00 +20°C° 0 mm 1 m/s 758 mmHg 89%
06:00 +20°C° 0 mm 1 m/s 758 mmHg 89%
07:00 +21°C° 0 mm 1 m/s 758 mmHg 84%
08:00 +23°C° 0 mm 1 m/s 758 mmHg 78%
09:00 +25°C° 0 mm 1 m/s 758 mmHg 72%
10:00 +26°C° 0 mm 1 m/s 759 mmHg 68%
11:00 +27°C° 0 mm 1 m/s 759 mmHg 64%
12:00 +28°C° 0 mm 1 m/s 759 mmHg 60%
13:00 +29°C° 0 mm 1 m/s 759 mmHg 58%
14:00 +29°C° 0 mm 1 m/s 759 mmHg 55%
15:00 +30°C° 0 mm 1 m/s 758 mmHg 53%
16:00 +29°C° 0 mm 1 m/s 758 mmHg 57%
17:00 +29°C° 0 mm 1 m/s 758 mmHg 60%
18:00 +28°C° 0 mm 1 m/s 758 mmHg 64%
19:00 +26°C° 0 mm 1 m/s 758 mmHg 68%
20:00 +25°C° 0 mm 1 m/s 758 mmHg 71%
21:00 +23°C° 0 mm 1 m/s 758 mmHg 75%
22:00 +22°C° 0 mm 1 m/s 758 mmHg 76%
23:00 +22°C° 0 mm 1 m/s 758 mmHg 78%

16 Mai, Dimanche

Heure Température Précipitation Vent Pression Humidité
00:00 +21°C° 0 mm 1 m/s 758 mmHg 79%
01:00 +21°C° 0 mm 1 m/s 758 mmHg 81%
02:00 +20°C° 0 mm 2 m/s 757 mmHg 83%
03:00 +19°C° 0 mm 2 m/s 757 mmHg 84%
04:00 +19°C° 0 mm 2 m/s 757 mmHg 84%
05:00 +19°C° 0 mm 2 m/s 757 mmHg 84%
06:00 +18°C° 0 mm 3 m/s 757 mmHg 84%
07:00 +20°C° 0 mm 3 m/s 757 mmHg 76%
08:00 +21°C° 0 mm 4 m/s 757 mmHg 68%
09:00 +22°C° 0 mm 4 m/s 757 mmHg 61%
10:00 +25°C° 0 mm 5 m/s 757 mmHg 57%
11:00 +26°C° 0 mm 5 m/s 756 mmHg 53%
12:00 +27°C° 0 mm 6 m/s 756 mmHg 49%
13:00 +28°C° 0 mm 6 m/s 756 mmHg 49%
14:00 +29°C° 0 mm 6 m/s 755 mmHg 49%
15:00 +29°C° 0 mm 6 m/s 755 mmHg 49%
16:00 +29°C° 0 mm 5 m/s 754 mmHg 53%
17:00 +28°C° 0 mm 5 m/s 754 mmHg 56%
18:00 +27°C° 0 mm 4 m/s 754 mmHg 60%
19:00 +26°C° 0 mm 4 m/s 754 mmHg 60%
20:00 +25°C° 0 mm 5 m/s 754 mmHg 60%
21:00 +23°C° 0 mm 6 m/s 754 mmHg 60%
22:00 +22°C° 0 mm 6 m/s 753 mmHg 56%
23:00 +21°C° 0 mm 6 m/s 753 mmHg 53%

17 Mai, Lundi

Heure Température Précipitation Vent Pression Humidité
00:00 +21°C° 0 mm 6 m/s 753 mmHg 50%
01:00 +20°C° 0 mm 6 m/s 753 mmHg 51%
02:00 +17°C° 0 mm 5 m/s 753 mmHg 53%
03:00 +17°C° 0 mm 4 m/s 754 mmHg 55%
04:00 +16°C° 0 mm 5 m/s 753 mmHg 58%
05:00 +16°C° 0 mm 5 m/s 753 mmHg 61%
06:00 +15°C° 0 mm 5 m/s 753 mmHg 64%
07:00 +17°C° 0 mm 5 m/s 754 mmHg 61%
08:00 +20°C° 0 mm 5 m/s 754 mmHg 59%
09:00 +22°C° 0 mm 4 m/s 754 mmHg 57%
10:00 +23°C° 0 mm 4 m/s 754 mmHg 56%
11:00 +25°C° 0 mm 3 m/s 754 mmHg 55%
12:00 +26°C° 0 mm 2 m/s 755 mmHg 54%
13:00 +27°C° 0 mm 2 m/s 755 mmHg 53%
14:00 +27°C° 0 mm 1 m/s 755 mmHg 52%
15:00 +28°C° 0 mm 1 m/s 755 mmHg 51%
16:00 +27°C° 0.3 mm 2 m/s 755 mmHg 60%
17:00 +25°C° 0.3 mm 3 m/s 756 mmHg 69%
18:00 +23°C° 0.3 mm 4 m/s 756 mmHg 78%
19:00 +22°C° 0.8 mm 4 m/s 756 mmHg 83%
20:00 +20°C° 0.8 mm 4 m/s 757 mmHg 88%
21:00 +19°C° 0.8 mm 3 m/s 757 mmHg 93%
22:00 +19°C° 0.3 mm 3 m/s 757 mmHg 93%
23:00 +18°C° 0.3 mm 3 m/s 758 mmHg 93%

18 Mai, Mardi

Heure Température Précipitation Vent Pression Humidité
00:00 +18°C° 0.3 mm 3 m/s 758 mmHg 93%
01:00 +17°C° 0 mm 3 m/s 758 mmHg 93%
02:00 +16°C° 0 mm 3 m/s 758 mmHg 93%
03:00 +16°C° 0 mm 3 m/s 759 mmHg 93%
04:00 +16°C° 0 mm 2 m/s 759 mmHg 93%
05:00 +16°C° 0 mm 2 m/s 760 mmHg 92%
06:00 +16°C° 0 mm 2 m/s 760 mmHg 92%
07:00 +17°C° 0 mm 3 m/s 760 mmHg 89%
08:00 +18°C° 0 mm 3 m/s 760 mmHg 85%
09:00 +19°C° 0 mm 4 m/s 760 mmHg 82%
10:00 +20°C° 0 mm 4 m/s 760 mmHg 77%
11:00 +21°C° 0 mm 3 m/s 761 mmHg 71%
12:00 +24°C° 0 mm 3 m/s 761 mmHg 66%
13:00 +24°C° 0 mm 3 m/s 761 mmHg 63%
14:00 +25°C° 0 mm 3 m/s 761 mmHg 60%
15:00 +26°C° 0 mm 3 m/s 761 mmHg 57%
16:00 +25°C° 0 mm 3 m/s 761 mmHg 60%
17:00 +25°C° 0 mm 3 m/s 761 mmHg 63%
18:00 +24°C° 0 mm 2 m/s 761 mmHg 66%
19:00 +23°C° 0 mm 2 m/s 761 mmHg 71%
20:00 +20°C° 0 mm 2 m/s 761 mmHg 76%
21:00 +18°C° 0 mm 2 m/s 761 mmHg 80%
22:00 +18°C° 0 mm 2 m/s 761 mmHg 81%
23:00 +17°C° 0 mm 2 m/s 761 mmHg 83%
Voir plus

Nous avons besoin de votre consentement

Meteoprog et ses fournisseurs de services peuvent stocker et accéder à des données personnelles telles que des cookies, des identifiants d'appareils ou d'autres technologies similaires sur votre appareil et traiter ces données pour personnaliser le contenu et les publicités, ainsi que pour fournir des fonctionnalités de médias sociaux et analyser le trafic.

  • Stocker et/ou accéder à des informations sur votre appareil

    Des cookies, des identifiants d'appareils ou d'autres informations peuvent être stockés ou accessibles sur votre appareil aux fins indiquées ci-dessus.

  • Annonces et contenus personnalisés, mesure des annonces et des contenus, connaissance de l'audience et développement de produits

    Les annonces et le contenu peuvent être personnalisés en fonction d'un profil. D'autres données peuvent être ajoutées pour mieux personnaliser les annonces et le contenu. Les performances des publicités et du contenu peuvent être mesurées. Il est possible d'obtenir des informations sur le public qui a vu les publicités et le contenu. Ces données peuvent être utilisées pour développer ou améliorer l'expérience de l'utilisateur, les systèmes et les logiciels.

En cliquant sur "J'accepte", vous autorisez l'utilisation de cookies, des identifiants d'appareils, des balises web ou d'autres technologies similaires. Vos paramètres peuvent être modifiés dans le navigateur de votre appareil.

Dans certains cas, des intérêts légitimes peuvent être invoqués plutôt qu'un consentement. Vous pouvez en savoir plus à ce sujet dans notre Politique de confidentialité et de cookies.